Rochester, NH

3:01 AM EST on December 13, 2017 (GMT -0500)
Skyhaven

Weather History for KDAW - March, 2013

Change the Weather History Date:

Friday, March 1, 2013

  Actual Average (KPSM) Record (KPSM)
Temperature  
Mean Temperature 34 °F -  
Max Temperature 37 °F 37 °F 64 °F (2017)
Min Temperature 30 °F 22 °F -2 °F (1978)
Degree Days  
Heating Degree Days 32    
Moisture  
Dew Point 28 °F    
Average Humidity 75    
Maximum Humidity 87    
Minimum Humidity 62    
Precipitation  
Precipitation 0.00 in - - ()
Sea Level Pressure  
Sea Level Pressure 29.59 in    
Wind  
Wind Speed 6 mph (NNW)    
Max Wind Speed 12 mph    
Max Gust Speed 20 mph    
Visibility 10 miles    
Events Snow    
Averages and records for this station are not official NWS values.
T = Trace of Precipitation, MM = Missing Value Source: NWS Daily Summary

Daily Weather History Graph

Daily Weather History Graph

Search for Another Location

Airport or City:

Trip Planner

Search our weather history database for the weather conditions in past years. The results will help you decide how hot, cold, wet, or windy it might be!

Date:

Astronomy

Mar. 01, 2013 Rise Set
Actual Time 6:19 AM EST 5:33 PM EST
Civil Twilight 5:50 AM EST 6:01 PM EST
Nautical Twilight 5:18 AM EST 6:34 PM EST
Astronomical Twilight 4:45 AM EST 7:07 PM EST
Moon 10:12 PM EST (3/1) 7:56 AM EST (3/1)
Length of Visible Light 12h 10m
Length of Day
11h 13m
Waning Gibbous, 83% of the Moon is Illuminated
Mar 1
Waning Gibbous
Mar 4
Last Quarter
Mar 11
New
Mar 19
First Quarter
Mar 27
Full

Hourly Weather History & Observations

Time (EST) Temp. Windchill Dew Point Humidity Pressure Visibility Wind Dir Wind Speed Gust Speed Precip Events Conditions
12:49 AM 33.8 °F 28.6 °F 30.2 °F 87% 29.52 in 10.0 mi North 5.8 mph - N/A   Overcast
12:51 AM 34.0 °F 29.8 °F 30.0 °F 85% 29.52 in 10.0 mi North 4.6 mph - N/A   Overcast
1:51 AM 33.1 °F 27.7 °F 28.9 °F 85% 29.52 in 10.0 mi North 5.8 mph - N/A   Mostly Cloudy
2:49 AM 33.8 °F 28.6 °F 28.4 °F 81% 29.52 in 10.0 mi NNE 5.8 mph - N/A   Mostly Cloudy
2:51 AM 33.1 °F 27.7 °F 28.9 °F 85% 29.52 in 10.0 mi North 5.8 mph - N/A   Mostly Cloudy
3:51 AM 33.1 °F 26.9 °F 28.0 °F 82% 29.53 in 10.0 mi North 6.9 mph - N/A   Overcast
4:49 AM 33.8 °F 28.6 °F 26.6 °F 75% 29.54 in 10.0 mi North 5.8 mph - N/A   Overcast
4:51 AM 33.1 °F 28.7 °F 27.0 °F 78% 29.54 in 10.0 mi North 4.6 mph - N/A   Overcast
5:51 AM 32.0 °F 27.5 °F 27.0 °F 82% 29.55 in 10.0 mi NNW 4.6 mph - N/A   Overcast
6:51 AM 30.9 °F 26.2 °F 27.0 °F 85% 29.57 in 10.0 mi NW 4.6 mph - N/A   Overcast
7:51 AM 33.1 °F 28.7 °F 28.0 °F 82% 29.58 in 10.0 mi NW 4.6 mph - N/A   Overcast
8:51 AM 36.0 °F 30.3 °F 26.1 °F 67% 29.60 in 10.0 mi North 6.9 mph - N/A   Overcast
9:51 AM 37.9 °F 32.7 °F 26.1 °F 62% 29.60 in 10.0 mi Variable 6.9 mph - N/A   Overcast
10:51 AM 37.9 °F 32.1 °F 26.1 °F 62% 29.60 in 10.0 mi North 8.1 mph 17.3 mph N/A   Overcast
11:51 AM 37.9 °F 30.5 °F 26.1 °F 62% 29.61 in 10.0 mi NNW 11.5 mph 19.6 mph N/A   Overcast
12:51 PM 37.9 °F 34.4 °F 27.0 °F 65% 29.61 in 10.0 mi North 4.6 mph - N/A   Overcast
1:14 PM 37.4 °F 31.4 °F 26.6 °F 65% 29.60 in 10.0 mi North 8.1 mph - N/A   Overcast
1:51 PM 37.9 °F 33.5 °F 27.0 °F 65% 29.60 in 10.0 mi North 5.8 mph - N/A   Overcast
2:41 PM 37.4 °F 32.8 °F 26.6 °F 65% 29.61 in 10.0 mi North 5.8 mph - N/A   Overcast
2:51 PM 37.0 °F 31.6 °F 28.0 °F 70% 29.61 in 10.0 mi NNW 6.9 mph - N/A   Overcast
3:51 PM 36.0 °F 30.3 °F 28.9 °F 76% 29.62 in 10.0 mi NW 6.9 mph - N/A   Overcast
4:51 PM 36.0 °F 32.1 °F 28.9 °F 76% 29.63 in 10.0 mi WNW 4.6 mph - N/A   Overcast
5:51 PM 36.0 °F 32.1 °F 28.9 °F 76% 29.65 in 10.0 mi NW 4.6 mph - N/A   Overcast
6:51 PM 35.1 °F 30.1 °F 28.0 °F 76% 29.65 in 10.0 mi NW 5.8 mph - N/A   Overcast
7:51 PM 35.1 °F 29.3 °F 27.0 °F 72% 29.65 in 10.0 mi NW 6.9 mph - 0.00 in   Overcast
8:51 PM 34.0 °F 28.8 °F 27.0 °F 75% 29.66 in 10.0 mi NW 5.8 mph - N/A   Overcast
9:51 PM 34.0 °F 28.8 °F 27.0 °F 75% 29.66 in 10.0 mi NNW 5.8 mph - N/A   Overcast
10:51 PM 33.1 °F 26.9 °F 28.0 °F 82% 29.65 in 8.0 mi NW 6.9 mph - 0.00 in   Overcast
11:51 PM 32.0 °F 26.4 °F 28.0 °F 85% 29.65 in 7.0 mi WNW 5.8 mph - 0.00 in Snow Light Snow